{"data":{"norad_id":62083,"epoch":"2026-09-22T21:38:14.815968Z","epoch_age_seconds":99951,"freshness":"FRESH","line1":"1 62083U 24219C   26265.90156037  .00000370  00000+0  66301-4 0  9998","line2":"2 62083  97.9115  62.1646 0005414 323.1410  36.9425 14.72294887 98149","mean_motion":14.72294887,"eccentricity":0.0005414,"inclination_deg":97.9115,"raan_deg":62.1646,"arg_perigee_deg":323.141,"mean_anomaly_deg":36.9425,"bstar":6.6301e-5,"rev_number":9814,"period_min":97.806493299328,"perigee_km":649.9443753295,"apogee_km":657.55850413204,"semimajor_km":7031.8884397308,"source":"CELESTRAK","updated_at":"2026-09-23T09:00:21.211067Z"}}